Back to catalog

SL-8 DEB

AliveLEO
NORAD 21249·DEBRIS·🇷🇺 Russia

Launched Feb 12, 1991 from Plesetsk Cosmodrome

Loading…

Next Passes (next 24 hours)

TLE

FreshSource: Space-Track

Epoch: Sep 14, 2026, 09:50 UTC

1 21249U 91009BG  26257.41028088 -.00000002  00000-0  11471-3 0  9990
2 21249  74.0720  45.0819 0123070  42.0666 347.3737 12.22377679584854

Track SL-8 DEB in real time with AllMySat

Download on the App Store